This is the latest recevied weather packets stored in our database for station/object K5FEP. If no packets are shown the sender has not sent any weather packets the latest 10 day(s).
| Time | Temp. | Humidity | Pressure | Rain* | Wind** | Luminosity | Snow |
|---|---|---|---|---|---|---|---|
| 1777947516 | 16.11° C | 61% | 1012.7 hPa | 0 mm | - | 0 W/m² | - |
| 1777947213 | 16.67° C | 59% | 1012.8 hPa | 0 mm | - | 0 W/m² | - |
| 1777946908 | 16.11° C | 59% | 1012.7 hPa | 0 mm | - | 0 W/m² | - |
| 1777946604 | 16.67° C | 58% | 1012.7 hPa | 0 mm | - | 0 W/m² | - |
| 1777946301 | 16.67° C | 57% | 1012.6 hPa | 0 mm | - | 0 W/m² | - |
| 1777945998 | 17.22° C | 58% | 1012.9 hPa | 0 mm | - | 0 W/m² | - |
| 1777945696 | 17.78° C | 55% | 1012.6 hPa | 0 mm | - | 0 W/m² | - |
| 1777945392 | 17.78° C | 51% | 1012.7 hPa | 0 mm | - | 0 W/m² | - |
| 1777945089 | 17.22° C | 53% | 1012.5 hPa | 0 mm | - | 0 W/m² | - |
| 1777944786 | 16.67° C | 57% | 1012.4 hPa | 0 mm | - | 0 W/m² | - |
| 1777944485 | 17.22° C | 58% | 1012.4 hPa | 0 mm | - | 0 W/m² | - |
| 1777944182 | 17.22° C | 57% | 1012.3 hPa | 0 mm | - | 0 W/m² | - |
| 1777943878 | 17.78° C | 55% | 1012.4 hPa | 0 mm | - | 0 W/m² | - |
| 1777943575 | 17.78° C | 56% | 1012.2 hPa | 0 mm | - | 0 W/m² | - |
| 1777943270 | 17.78° C | 57% | 1012.2 hPa | 0 mm | - | 0 W/m² | - |
| 1777942967 | 17.78° C | 56% | 1012.3 hPa | 0 mm | - | 0 W/m² | - |
| 1777942663 | 17.78° C | 57% | 1012.2 hPa | 0 mm | - | 0 W/m² | - |
| 1777942360 | 18.33° C | 55% | 1012.1 hPa | 0 mm | - | 0 W/m² | - |
| 1777942057 | 18.33° C | 55% | 1011.9 hPa | 0 mm | - | 0 W/m² | - |
| 1777941753 | 18.33° C | 54% | 1012.1 hPa | 0 mm | - | 0 W/m² | - |
| 1777941451 | 18.89° C | 52% | 1012.1 hPa | 0 mm | - | 0 W/m² | - |
| 1777941149 | 18.89° C | 53% | 1012 hPa | 0 mm | - | 0 W/m² | - |
| 1777940845 | 18.89° C | 48% | 1011.9 hPa | 0 mm | - | 0 W/m² | - |
| 1777940542 | 19.44° C | 50% | 1012 hPa | 0 mm | - | 0 W/m² | - |
| 1777940240 | 20° C | 50% | 1011.9 hPa | 0 mm | - | 1 W/m² | - |
* Rain latest hour (hover to see other rain measurements)
** Current wind speed in m/s (hover to see current wind gust speed)